status,avgMeasuredTime,avgSpeed,extID,medianMeasuredTime,TIMESTAMP,vehicleCount,_id,REPORT_ID
OK,58,50,930,58,2014-08-01T08:00:00,0,20746985,197734
OK,109,26,930,109,2014-08-01T08:05:00,1,20747434,197734
OK,108,27,930,108,2014-08-01T08:10:00,1,20747807,197734
OK,109,26,930,109,2014-08-01T08:15:00,0,20748256,197734
OK,119,24,930,119,2014-08-01T08:20:00,2,20748705,197734
OK,119,24,930,119,2014-08-01T08:25:00,2,20749154,197734
OK,85,34,930,85,2014-08-01T08:30:00,1,20749603,197734
OK,85,34,930,85,2014-08-01T08:35:00,1,20750052,197734
OK,85,34,930,85,2014-08-01T08:40:00,0,20750501,197734
OK,111,26,930,111,2014-08-01T08:45:00,2,20750950,197734
OK,111,26,930,111,2014-08-01T08:50:00,2,20751399,197734
OK,138,21,930,138,2014-08-01T08:55:00,2,20751848,197734
OK,138,21,930,138,2014-08-01T09:00:00,2,20752297,197734
OK,114,25,930,114,2014-08-01T09:05:00,4,20752746,197734
OK,114,25,930,114,2014-08-01T09:10:00,4,20753195,197734
OK,118,24,930,118,2014-08-01T09:20:00,1,20754093,197734
OK,81,36,930,81,2014-08-01T09:25:00,4,20754542,197734
OK,80,36,930,80,2014-08-01T09:30:00,3,20754991,197734
OK,54,54,930,54,2014-08-01T09:35:00,0,20755440,197734
OK,166,17,930,166,2014-08-01T09:40:00,1,20755889,197734
OK,114,25,930,114,2014-08-01T09:45:00,3,20756338,197734
OK,114,25,930,114,2014-08-01T09:50:00,3,20756787,197734
OK,126,23,930,126,2014-08-01T09:55:00,2,20757236,197734
OK,127,23,930,127,2014-08-01T10:00:00,1,20757685,197734
OK,127,23,930,127,2014-08-01T10:05:00,0,20758134,197734
OK,116,25,930,116,2014-08-01T10:15:00,1,20759032,197734
OK,116,25,930,116,2014-08-01T10:20:00,3,20759481,197734
OK,98,29,930,98,2014-08-01T10:25:00,4,20759930,197734
OK,73,40,930,73,2014-08-01T10:30:00,2,20760379,197734
OK,60,48,930,60,2014-08-01T10:35:00,0,20760828,197734
OK,60,48,930,60,2014-08-01T10:40:00,0,20761277,197734
OK,60,48,930,60,2014-08-01T10:45:00,0,20761726,197734
OK,60,48,930,60,2014-08-01T10:50:00,0,20762175,197734
OK,60,48,930,60,2014-08-01T10:55:00,0,20762624,197734
OK,60,48,930,60,2014-08-01T11:00:00,0,20763073,197734
OK,102,28,930,102,2014-08-01T11:05:00,1,20763522,197734
OK,102,28,930,102,2014-08-01T11:10:00,1,20763971,197734
OK,75,39,930,75,2014-08-01T11:15:00,1,20764419,197734
OK,75,39,930,75,2014-08-01T11:20:00,1,20764868,197734
OK,79,37,930,79,2014-08-01T11:25:00,1,20765317,197734
OK,79,37,930,79,2014-08-01T11:30:00,3,20765766,197734
OK,85,34,930,85,2014-08-01T11:35:00,2,20766215,197734
OK,77,38,930,77,2014-08-01T11:40:00,0,20766664,197734
OK,147,19,930,147,2014-08-01T11:45:00,1,20767113,197734
OK,79,37,930,79,2014-08-01T11:50:00,5,20767562,197734
OK,106,27,930,106,2014-08-01T11:55:00,1,20768011,197734
OK,108,27,930,108,2014-08-01T12:00:00,1,20768460,197734
OK,83,35,930,83,2014-08-01T12:10:00,3,20769358,197734
OK,83,35,930,83,2014-08-01T12:15:00,3,20769807,197734
OK,112,26,930,112,2014-08-01T12:20:00,1,20770256,197734
OK,112,26,930,112,2014-08-01T12:25:00,1,20770705,197734
OK,88,33,930,88,2014-08-01T12:30:00,1,20771154,197734
OK,97,30,930,97,2014-08-01T12:35:00,3,20771603,197734
OK,117,25,930,117,2014-08-01T12:40:00,4,20772052,197734
OK,130,22,930,130,2014-08-01T12:45:00,4,20772501,197734
OK,150,19,930,150,2014-08-01T12:50:00,2,20772950,197734
OK,88,33,930,88,2014-08-01T12:55:00,2,20773399,197734
OK,113,25,930,113,2014-08-01T13:00:00,3,20773848,197734
OK,134,21,930,134,2014-08-01T13:05:00,2,20774297,197734
OK,116,25,930,116,2014-08-01T13:10:00,2,20774746,197734
OK,136,21,930,136,2014-08-01T13:15:00,3,20775195,197734
OK,136,21,930,136,2014-08-01T13:20:00,1,20775644,197734
OK,78,37,930,78,2014-08-01T13:25:00,2,20776093,197734
OK,85,34,930,85,2014-08-01T13:30:00,3,20776542,197734
OK,133,22,930,133,2014-08-01T13:35:00,4,20776991,197734
OK,126,23,930,126,2014-08-01T13:40:00,3,20777440,197734
OK,161,18,930,161,2014-08-01T13:45:00,1,20777889,197734
OK,161,18,930,161,2014-08-01T13:50:00,1,20778338,197734
OK,78,37,930,78,2014-08-01T14:00:00,2,20779236,197734
OK,81,36,930,81,2014-08-01T14:05:00,2,20779685,197734
OK,81,36,930,81,2014-08-01T14:10:00,2,20780134,197734
OK,144,20,930,144,2014-08-01T14:15:00,1,20780583,197734
OK,144,20,930,144,2014-08-01T14:20:00,1,20781032,197734
OK,140,20,930,140,2014-08-01T14:25:00,1,20781481,197734
OK,140,20,930,140,2014-08-01T14:30:00,1,20781930,197734
OK,170,17,930,170,2014-08-01T14:35:00,1,20782379,197734
OK,70,41,930,70,2014-08-01T14:40:00,3,20782828,197734
OK,69,42,930,69,2014-08-01T14:45:00,3,20783277,197734
OK,65,45,930,65,2014-08-01T14:50:00,2,20783726,197734
OK,66,44,930,66,2014-08-01T14:55:00,1,20784175,197734
OK,76,38,930,76,2014-08-01T15:00:00,1,20784624,197734
OK,76,38,930,76,2014-08-01T15:05:00,1,20785073,197734
OK,89,32,930,89,2014-08-01T15:10:00,1,20785522,197734
OK,89,32,930,89,2014-08-01T15:15:00,1,20785971,197734
OK,89,32,930,89,2014-08-01T15:20:00,0,20786420,197734
OK,114,25,930,114,2014-08-01T15:25:00,1,20786869,197734
OK,114,25,930,114,2014-08-01T15:30:00,1,20787318,197734
OK,117,25,930,117,2014-08-01T15:35:00,1,20787767,197734
OK,117,25,930,117,2014-08-01T15:40:00,1,20788216,197734
OK,123,23,930,123,2014-08-01T15:45:00,1,20788665,197734
OK,109,26,930,109,2014-08-01T15:50:00,2,20789114,197734
OK,84,34,930,84,2014-08-01T15:55:00,2,20789563,197734
OK,73,40,930,73,2014-08-01T16:00:00,1,20790012,197734
OK,72,40,930,72,2014-08-01T16:05:00,1,20790461,197734
OK,72,40,930,72,2014-08-01T16:10:00,1,20790910,197734
OK,72,40,930,72,2014-08-01T16:15:00,0,20791359,197734
OK,95,30,930,95,2014-08-01T16:20:00,1,20791808,197734
OK,95,30,930,95,2014-08-01T16:25:00,1,20792257,197734
OK,117,25,930,117,2014-08-01T16:30:00,1,20792706,197734
OK,117,25,930,117,2014-08-01T16:35:00,1,20793155,197734
OK,117,25,930,117,2014-08-01T16:40:00,0,20793604,197734
OK,117,25,930,117,2014-08-01T16:45:00,0,20794053,197734
OK,117,25,930,117,2014-08-01T16:50:00,0,20794502,197734
OK,83,35,930,83,2014-08-01T16:55:00,2,20794951,197734
OK,83,35,930,83,2014-08-01T17:00:00,2,20795400,197734
OK,47,62,930,47,2014-08-01T17:05:00,1,20795849,197734
OK,73,40,930,73,2014-08-01T17:10:00,2,20796298,197734
OK,70,41,930,70,2014-08-01T17:15:00,2,20796747,197734
OK,73,40,930,73,2014-08-01T17:20:00,3,20797196,197734
OK,73,40,930,73,2014-08-01T17:25:00,3,20797645,197734
OK,90,32,930,90,2014-08-01T17:30:00,1,20798094,197734
OK,90,32,930,90,2014-08-01T17:35:00,0,20798543,197734
OK,90,32,930,90,2014-08-01T17:40:00,0,20798992,197734
OK,90,32,930,90,2014-08-01T17:45:00,0,20799441,197734
OK,90,32,930,90,2014-08-01T17:50:00,0,20799890,197734
OK,90,32,930,90,2014-08-01T17:55:00,0,20800339,197734
OK,90,32,930,90,2014-08-01T18:00:00,0,20800788,197734
OK,90,32,930,90,2014-08-01T18:05:00,0,20801237,197734
OK,90,32,930,90,2014-08-01T18:10:00,0,20801686,197734
OK,90,32,930,90,2014-08-01T18:15:00,0,20802135,197734
OK,130,22,930,130,2014-08-01T18:20:00,1,20802584,197734
OK,130,22,930,130,2014-08-01T18:25:00,1,20803033,197734
OK,63,46,930,63,2014-08-01T18:30:00,2,20803482,197734
OK,104,28,930,104,2014-08-01T18:35:00,2,20803931,197734
OK,134,21,930,134,2014-08-01T18:40:00,2,20804380,197734
OK,96,30,930,96,2014-08-01T18:45:00,1,20804829,197734
OK,67,43,930,67,2014-08-01T18:50:00,2,20805278,197734
OK,38,77,930,38,2014-08-01T18:55:00,1,20805727,197734
OK,38,77,930,38,2014-08-01T19:00:00,0,20806176,197734
OK,109,26,930,109,2014-08-01T19:05:00,1,20806625,197734
OK,109,26,930,109,2014-08-01T19:10:00,2,20807074,197734
OK,82,35,930,82,2014-08-01T19:15:00,1,20807523,197734
OK,82,35,930,82,2014-08-01T19:20:00,1,20807972,197734
OK,82,35,930,82,2014-08-01T19:25:00,0,20808421,197734
OK,43,68,930,43,2014-08-01T19:30:00,1,20808870,197734
OK,43,68,930,43,2014-08-01T19:35:00,1,20809319,197734
OK,43,68,930,43,2014-08-01T19:40:00,0,20809768,197734
OK,43,68,930,43,2014-08-01T19:45:00,0,20810217,197734
OK,43,68,930,43,2014-08-01T19:50:00,0,20810666,197734
OK,43,68,930,43,2014-08-01T19:55:00,0,20811115,197734
OK,43,68,930,43,2014-08-01T22:00:00,0,20816844,197734
OK,106,27,930,106,2014-08-02T00:00:00,1,20823283,197734
OK,106,27,930,106,2014-08-02T00:05:00,1,20823732,197734
OK,106,27,930,106,2014-08-02T00:10:00,0,20824181,197734
OK,106,27,930,106,2014-08-02T00:15:00,0,20824630,197734
OK,106,27,930,106,2014-08-02T00:20:00,0,20825079,197734
OK,106,27,930,106,2014-08-02T00:25:00,0,20825528,197734
OK,106,27,930,106,2014-08-02T00:30:00,0,20825977,197734
OK,106,27,930,106,2014-08-02T00:35:00,0,20826426,197734
OK,106,27,930,106,2014-08-02T00:40:00,0,20826875,197734
OK,106,27,930,106,2014-08-02T00:45:00,0,20827324,197734
OK,106,27,930,106,2014-08-02T00:50:00,0,20827773,197734
OK,106,27,930,106,2014-08-02T00:55:00,0,20828222,197734
OK,106,27,930,106,2014-08-02T01:00:00,0,20828671,197734
OK,106,27,930,106,2014-08-02T01:05:00,0,20829120,197734
OK,106,27,930,106,2014-08-02T01:10:00,0,20829569,197734
OK,106,27,930,106,2014-08-02T01:15:00,0,20830018,197734
OK,106,27,930,106,2014-08-02T01:20:00,0,20830467,197734
OK,106,27,930,106,2014-08-02T01:25:00,0,20830916,197734
OK,106,27,930,106,2014-08-02T01:30:00,0,20831365,197734
OK,106,27,930,106,2014-08-02T01:35:00,0,20831814,197734
OK,106,27,930,106,2014-08-02T01:40:00,0,20832263,197734
OK,106,27,930,106,2014-08-02T01:45:00,0,20832712,197734
OK,106,27,930,106,2014-08-02T01:50:00,0,20833161,197734
OK,106,27,930,106,2014-08-02T01:55:00,0,20833610,197734
OK,106,27,930,106,2014-08-02T02:00:00,0,20834059,197734
OK,106,27,930,106,2014-08-02T02:05:00,0,20834508,197734
OK,106,27,930,106,2014-08-02T02:10:00,0,20834957,197734
OK,106,27,930,106,2014-08-02T02:15:00,0,20835406,197734
OK,106,27,930,106,2014-08-02T02:20:00,0,20835855,197734
OK,106,27,930,106,2014-08-02T02:25:00,0,20836304,197734
OK,106,27,930,106,2014-08-02T02:30:00,0,20836753,197734
OK,106,27,930,106,2014-08-02T02:35:00,0,20837202,197734
OK,106,27,930,106,2014-08-02T02:40:00,0,20837651,197734
OK,106,27,930,106,2014-08-02T02:45:00,0,20838100,197734
OK,106,27,930,106,2014-08-02T02:50:00,0,20838549,197734
OK,106,27,930,106,2014-08-02T02:55:00,0,20838998,197734
OK,106,27,930,106,2014-08-02T03:00:00,0,20839447,197734
OK,106,27,930,106,2014-08-02T03:05:00,0,20839896,197734
OK,106,27,930,106,2014-08-02T03:10:00,0,20840345,197734
OK,106,27,930,106,2014-08-02T03:15:00,0,20840794,197734
OK,106,27,930,106,2014-08-02T03:20:00,0,20841243,197734
OK,106,27,930,106,2014-08-02T03:25:00,0,20841692,197734
OK,106,27,930,106,2014-08-02T03:30:00,0,20842141,197734
OK,106,27,930,106,2014-08-02T03:35:00,0,20842590,197734
OK,106,27,930,106,2014-08-02T03:40:00,0,20843039,197734
OK,106,27,930,106,2014-08-02T03:45:00,0,20843488,197734
OK,106,27,930,106,2014-08-02T03:50:00,0,20843937,197734
OK,106,27,930,106,2014-08-02T03:55:00,0,20844386,197734
OK,81,36,930,81,2014-08-02T06:00:00,2,20851840,197734
OK,82,35,930,82,2014-08-02T06:05:00,2,20852289,197734
OK,86,34,930,86,2014-08-02T06:10:00,0,20852738,197734
OK,86,34,930,86,2014-08-02T06:15:00,0,20853187,197734
OK,86,34,930,86,2014-08-02T06:20:00,0,20853636,197734
OK,79,37,930,79,2014-08-02T06:25:00,1,20854085,197734
OK,77,38,930,77,2014-08-02T06:30:00,1,20854534,197734
OK,69,42,930,69,2014-08-02T06:35:00,1,20854983,197734
OK,69,42,930,69,2014-08-02T06:40:00,0,20855432,197734
OK,94,31,930,94,2014-08-02T06:45:00,1,20855881,197734
OK,94,31,930,94,2014-08-02T06:50:00,0,20856330,197734
OK,94,31,930,94,2014-08-02T06:55:00,0,20856779,197734
OK,94,31,930,94,2014-08-02T07:00:00,0,20857228,197734
OK,94,31,930,94,2014-08-02T07:05:00,0,20857677,197734
OK,94,31,930,94,2014-08-02T07:10:00,0,20858126,197734
OK,71,41,930,71,2014-08-02T07:15:00,1,20858575,197734
OK,90,32,930,90,2014-08-02T07:20:00,1,20859024,197734
OK,90,32,930,90,2014-08-02T07:25:00,1,20859473,197734
OK,90,32,930,90,2014-08-02T07:30:00,0,20859922,197734
OK,126,23,930,126,2014-08-02T07:35:00,1,20860371,197734
OK,119,24,930,119,2014-08-02T07:40:00,2,20860820,197734
OK,99,29,930,99,2014-08-02T07:45:00,3,20861269,197734
OK,90,32,930,90,2014-08-02T07:50:00,3,20861718,197734
OK,90,32,930,90,2014-08-02T07:55:00,1,20862167,197734
OK,126,23,930,126,2014-08-02T08:00:00,1,20862616,197734
OK,128,22,930,128,2014-08-02T08:05:00,3,20863065,197734
OK,129,22,930,129,2014-08-02T08:10:00,2,20863514,197734
OK,128,22,930,128,2014-08-02T08:15:00,0,20863963,197734
OK,128,22,930,128,2014-08-02T08:20:00,0,20864412,197734
OK,128,22,930,128,2014-08-02T08:25:00,0,20864861,197734
OK,76,38,930,76,2014-08-02T08:30:00,1,20865310,197734
OK,92,31,930,92,2014-08-02T08:35:00,2,20865759,197734
OK,92,31,930,92,2014-08-02T08:40:00,2,20866208,197734
OK,226,12,930,226,2014-08-02T08:45:00,3,20866657,197734
OK,227,12,930,227,2014-08-02T08:50:00,2,20867106,197734
OK,227,12,930,227,2014-08-02T08:55:00,0,20867555,197734
OK,107,27,930,107,2014-08-02T09:00:00,2,20868004,197734
OK,107,27,930,107,2014-08-02T09:05:00,3,20868453,197734
OK,83,35,930,83,2014-08-02T09:10:00,2,20868902,197734
OK,115,25,930,115,2014-08-02T09:15:00,1,20869351,197734
OK,115,25,930,115,2014-08-02T09:20:00,2,20869800,197734
OK,66,44,930,66,2014-08-02T09:25:00,1,20870249,197734
OK,66,44,930,66,2014-08-02T09:30:00,0,20870698,197734
OK,66,44,930,66,2014-08-02T09:35:00,0,20871147,197734
OK,76,38,930,76,2014-08-02T09:40:00,1,20871596,197734
OK,76,38,930,76,2014-08-02T09:45:00,1,20872045,197734
OK,76,38,930,76,2014-08-02T09:50:00,0,20872494,197734
OK,66,44,930,66,2014-08-02T09:55:00,2,20872943,197734
OK,66,44,930,66,2014-08-02T10:00:00,2,20873392,197734
OK,71,41,930,71,2014-08-02T10:05:00,1,20873841,197734
OK,91,32,930,91,2014-08-02T10:10:00,2,20874290,197734
OK,109,26,930,109,2014-08-02T10:15:00,2,20874739,197734
OK,77,38,930,77,2014-08-02T10:20:00,3,20875188,197734
OK,64,45,930,64,2014-08-02T10:25:00,2,20875637,197734
OK,144,20,930,144,2014-08-02T10:30:00,1,20876086,197734
OK,144,20,930,144,2014-08-02T10:35:00,1,20876535,197734
OK,69,42,930,69,2014-08-02T10:40:00,1,20876984,197734
OK,69,42,930,69,2014-08-02T10:45:00,1,20877433,197734
OK,55,53,930,55,2014-08-02T10:50:00,1,20877882,197734
OK,55,53,930,55,2014-08-02T10:55:00,0,20878331,197734
OK,55,53,930,55,2014-08-02T11:00:00,0,20878780,197734
OK,55,53,930,55,2014-08-02T11:05:00,0,20879229,197734
OK,76,38,930,76,2014-08-02T11:10:00,1,20879678,197734
OK,76,38,930,76,2014-08-02T11:15:00,1,20880127,197734
OK,76,38,930,76,2014-08-02T11:20:00,0,20880576,197734
OK,72,40,930,72,2014-08-02T11:25:00,3,20881025,197734
OK,72,40,930,72,2014-08-02T11:30:00,3,20881474,197734
OK,149,19,930,149,2014-08-02T11:35:00,1,20881923,197734
OK,149,19,930,149,2014-08-02T11:40:00,1,20882372,197734
OK,72,40,930,72,2014-08-02T11:45:00,1,20882821,197734
OK,72,40,930,72,2014-08-02T11:50:00,1,20883270,197734
OK,72,40,930,72,2014-08-02T11:55:00,0,20883719,197734
OK,56,52,930,56,2014-08-02T12:00:00,1,20884168,197734
OK,82,35,930,82,2014-08-02T12:05:00,3,20884617,197734
OK,85,34,930,85,2014-08-02T12:10:00,3,20885066,197734
OK,85,34,930,85,2014-08-02T12:15:00,0,20885515,197734
OK,85,34,930,85,2014-08-02T12:20:00,0,20885964,197734
OK,63,46,930,63,2014-08-02T12:25:00,1,20886413,197734
OK,133,22,930,133,2014-08-02T12:30:00,1,20886862,197734
OK,133,22,930,133,2014-08-02T12:35:00,1,20887311,197734
OK,133,22,930,133,2014-08-02T12:40:00,0,20887760,197734
OK,133,22,930,133,2014-08-02T12:45:00,0,20888209,197734
OK,133,22,930,133,2014-08-02T12:50:00,0,20888658,197734
OK,89,32,930,89,2014-08-02T12:55:00,1,20889107,197734
OK,90,32,930,90,2014-08-02T13:00:00,2,20889556,197734
OK,136,21,930,136,2014-08-02T13:05:00,2,20890005,197734
OK,81,36,930,81,2014-08-02T13:10:00,2,20890454,197734
OK,55,53,930,55,2014-08-02T13:15:00,4,20890903,197734
OK,55,53,930,55,2014-08-02T13:20:00,2,20891352,197734
OK,55,53,930,55,2014-08-02T13:25:00,0,20891801,197734
OK,55,53,930,55,2014-08-02T13:30:00,0,20892250,197734
OK,123,23,930,123,2014-08-02T13:35:00,2,20892699,197734
OK,115,25,930,115,2014-08-02T13:40:00,1,20893148,197734
OK,115,25,930,115,2014-08-02T13:45:00,0,20893597,197734
OK,103,28,930,103,2014-08-02T13:50:00,1,20894046,197734
OK,54,54,930,54,2014-08-02T13:55:00,1,20894495,197734
OK,54,54,930,54,2014-08-02T14:00:00,0,20894944,197734
OK,103,28,930,103,2014-08-02T14:05:00,1,20895393,197734
OK,94,31,930,94,2014-08-02T14:10:00,1,20895842,197734
OK,110,26,930,110,2014-08-02T14:15:00,2,20896291,197734
OK,94,31,930,94,2014-08-02T14:20:00,3,20896740,197734
OK,76,38,930,76,2014-08-02T14:25:00,1,20897189,197734
OK,81,36,930,81,2014-08-02T14:30:00,3,20897638,197734
OK,88,33,930,88,2014-08-02T14:35:00,3,20898087,197734
OK,103,28,930,103,2014-08-02T14:40:00,2,20898536,197734
OK,97,30,930,97,2014-08-02T14:45:00,1,20898985,197734
OK,97,30,930,97,2014-08-02T14:50:00,0,20899434,197734
OK,71,41,930,71,2014-08-02T14:55:00,2,20899883,197734
OK,71,41,930,71,2014-08-02T15:00:00,2,20900332,197734
OK,102,28,930,102,2014-08-02T15:05:00,1,20900781,197734
OK,102,28,930,102,2014-08-02T15:10:00,1,20901230,197734
OK,102,28,930,102,2014-08-02T15:15:00,0,20901679,197734
OK,135,21,930,135,2014-08-02T15:20:00,1,20902128,197734
OK,106,27,930,106,2014-08-02T15:25:00,2,20902577,197734
OK,78,37,930,78,2014-08-02T15:30:00,1,20903026,197734
OK,94,31,930,94,2014-08-02T15:35:00,2,20903475,197734
OK,84,34,930,84,2014-08-02T15:40:00,1,20903924,197734
OK,84,34,930,84,2014-08-02T15:45:00,0,20904373,197734
OK,125,23,930,125,2014-08-02T15:50:00,3,20904822,197734
OK,125,23,930,125,2014-08-02T15:55:00,3,20905271,197734
OK,98,29,930,98,2014-08-02T16:00:00,1,20905720,197734
OK,98,29,930,98,2014-08-02T16:05:00,0,20906169,197734
OK,98,29,930,98,2014-08-02T16:10:00,0,20906618,197734
OK,98,29,930,98,2014-08-02T16:15:00,0,20907067,197734
OK,98,29,930,98,2014-08-02T16:20:00,0,20907516,197734
OK,98,29,930,98,2014-08-02T16:25:00,0,20907965,197734
OK,143,20,930,143,2014-08-02T16:30:00,1,20908414,197734
OK,143,20,930,143,2014-08-02T16:35:00,0,20908863,197734
OK,143,20,930,143,2014-08-02T16:40:00,0,20909312,197734
OK,143,20,930,143,2014-08-02T16:45:00,0,20909761,197734
OK,143,20,930,143,2014-08-02T16:50:00,0,20910210,197734
OK,204,14,930,204,2014-08-02T16:55:00,1,20910659,197734
OK,204,14,930,204,2014-08-02T17:00:00,0,20911108,197734
OK,204,14,930,204,2014-08-02T17:05:00,0,20911557,197734
OK,204,14,930,204,2014-08-02T17:10:00,0,20912006,197734
OK,204,14,930,204,2014-08-02T17:15:00,0,20912455,197734
OK,204,14,930,204,2014-08-02T17:20:00,0,20912904,197734
OK,204,14,930,204,2014-08-02T17:25:00,0,20913353,197734
OK,204,14,930,204,2014-08-02T17:30:00,0,20913802,197734
OK,204,14,930,204,2014-08-02T17:35:00,0,20914251,197734
OK,204,14,930,204,2014-08-02T17:40:00,0,20914700,197734
OK,204,14,930,204,2014-08-02T17:45:00,0,20915149,197734
OK,204,14,930,204,2014-08-02T17:50:00,0,20915598,197734
OK,204,14,930,204,2014-08-02T17:55:00,0,20916047,197734
OK,204,14,930,204,2014-08-02T18:00:00,0,20916496,197734
OK,204,14,930,204,2014-08-02T18:05:00,0,20916945,197734
OK,42,69,930,42,2014-08-02T18:10:00,1,20917394,197734
OK,58,50,930,58,2014-08-02T18:15:00,3,20917843,197734
OK,86,34,930,86,2014-08-02T18:20:00,1,20918292,197734
OK,86,34,930,86,2014-08-02T18:25:00,0,20918741,197734
OK,86,34,930,86,2014-08-02T18:30:00,0,20919190,197734
OK,86,34,930,86,2014-08-02T18:35:00,0,20919639,197734
OK,86,34,930,86,2014-08-02T18:40:00,0,20920088,197734
OK,86,34,930,86,2014-08-02T18:45:00,0,20920537,197734
OK,86,34,930,86,2014-08-02T18:50:00,0,20920986,197734
OK,86,34,930,86,2014-08-02T18:55:00,0,20921435,197734
OK,86,34,930,86,2014-08-02T19:00:00,0,20921884,197734
OK,51,57,930,51,2014-08-02T19:05:00,1,20922333,197734
OK,74,39,930,74,2014-08-02T19:10:00,3,20922782,197734
OK,74,39,930,74,2014-08-02T19:15:00,1,20923231,197734
OK,74,39,930,74,2014-08-02T19:20:00,0,20923680,197734
OK,74,39,930,74,2014-08-02T19:25:00,0,20924129,197734
OK,74,39,930,74,2014-08-02T19:30:00,0,20924578,197734
OK,74,39,930,74,2014-08-02T19:35:00,0,20925027,197734
OK,98,29,930,98,2014-08-02T19:40:00,1,20925476,197734
OK,98,29,930,98,2014-08-02T19:45:00,0,20925925,197734
OK,98,29,930,98,2014-08-02T19:50:00,0,20926374,197734
OK,98,29,930,98,2014-08-02T19:55:00,0,20926823,197734
OK,98,29,930,98,2014-08-02T20:00:00,0,20927272,197734
OK,98,29,930,98,2014-08-02T20:05:00,0,20927721,197734
OK,98,29,930,98,2014-08-02T20:10:00,0,20928170,197734
OK,98,29,930,98,2014-08-02T20:15:00,0,20928619,197734
OK,98,29,930,98,2014-08-02T20:20:00,0,20929068,197734
OK,98,29,930,98,2014-08-02T20:25:00,0,20929517,197734
OK,98,29,930,98,2014-08-02T20:30:00,0,20929966,197734
OK,98,29,930,98,2014-08-02T20:35:00,0,20930415,197734
OK,98,29,930,98,2014-08-02T20:40:00,0,20930864,197734
OK,98,29,930,98,2014-08-02T20:45:00,0,20931313,197734
OK,98,29,930,98,2014-08-02T20:50:00,0,20931762,197734
OK,74,39,930,74,2014-08-02T20:55:00,1,20932211,197734
OK,74,39,930,74,2014-08-02T21:00:00,1,20932660,197734
OK,74,39,930,74,2014-08-02T21:05:00,0,20933109,197734
OK,61,47,930,61,2014-08-02T21:10:00,1,20933558,197734
OK,61,47,930,61,2014-08-02T21:15:00,0,20934007,197734
OK,61,47,930,61,2014-08-02T21:20:00,0,20934456,197734
OK,61,47,930,61,2014-08-02T21:25:00,0,20934905,197734
OK,61,47,930,61,2014-08-02T21:30:00,0,20935354,197734
OK,61,47,930,61,2014-08-02T21:35:00,0,20935803,197734
OK,62,47,930,62,2014-08-02T21:40:00,1,20936252,197734
OK,62,47,930,62,2014-08-02T21:45:00,0,20936701,197734
OK,62,47,930,62,2014-08-02T21:50:00,0,20937150,197734
OK,62,47,930,62,2014-08-02T21:55:00,0,20937599,197734
OK,62,47,930,62,2014-08-02T22:00:00,0,20938048,197734
OK,62,47,930,62,2014-08-02T22:05:00,0,20938497,197734
OK,62,47,930,62,2014-08-02T22:10:00,0,20938946,197734
OK,62,47,930,62,2014-08-02T22:15:00,0,20939395,197734
OK,62,47,930,62,2014-08-02T22:20:00,0,20939844,197734
OK,62,47,930,62,2014-08-02T22:25:00,0,20940293,197734
OK,62,47,930,62,2014-08-02T22:30:00,0,20940742,197734
OK,62,47,930,62,2014-08-02T22:35:00,0,20941191,197734
OK,73,40,930,73,2014-08-02T22:40:00,1,20941640,197734
OK,73,40,930,73,2014-08-02T22:45:00,1,20942089,197734
OK,73,40,930,73,2014-08-02T22:50:00,0,20942538,197734
OK,73,40,930,73,2014-08-02T22:55:00,0,20942987,197734
OK,73,40,930,73,2014-08-02T23:00:00,0,20943436,197734
OK,73,40,930,73,2014-08-02T23:10:00,0,20943885,197734
OK,73,40,930,73,2014-08-02T23:15:00,0,20944334,197734
OK,78,37,930,78,2014-08-02T23:20:00,1,20944783,197734
OK,78,37,930,78,2014-08-02T23:25:00,1,20945232,197734
OK,78,37,930,78,2014-08-02T23:30:00,0,20945681,197734
OK,78,37,930,78,2014-08-02T23:35:00,0,20946130,197734
OK,78,37,930,78,2014-08-02T23:40:00,0,20946579,197734
OK,78,37,930,78,2014-08-02T23:45:00,0,20947028,197734
OK,78,37,930,78,2014-08-02T23:50:00,0,20947477,197734
OK,78,37,930,78,2014-08-02T23:55:00,0,20947926,197734
OK,78,37,930,78,2014-08-03T00:00:00,0,20948375,197734
OK,78,37,930,78,2014-08-03T00:05:00,0,20948824,197734
OK,78,37,930,78,2014-08-03T00:10:00,0,20949272,197734
OK,78,37,930,78,2014-08-03T00:15:00,0,20949721,197734
OK,78,37,930,78,2014-08-03T00:20:00,0,20950170,197734
OK,78,37,930,78,2014-08-03T00:25:00,0,20950619,197734
OK,78,37,930,78,2014-08-03T00:30:00,0,20951068,197734
OK,78,37,930,78,2014-08-03T00:35:00,0,20951517,197734
OK,78,37,930,78,2014-08-03T00:40:00,0,20951966,197734
OK,78,37,930,78,2014-08-03T00:45:00,0,20952415,197734
OK,78,37,930,78,2014-08-03T00:50:00,0,20952864,197734
OK,78,37,930,78,2014-08-03T00:55:00,0,20953313,197734
OK,78,37,930,78,2014-08-03T01:00:00,0,20953762,197734
OK,78,37,930,78,2014-08-03T01:05:00,0,20954211,197734
OK,78,37,930,78,2014-08-03T01:10:00,0,20954660,197734
OK,78,37,930,78,2014-08-03T01:15:00,0,20955109,197734
OK,78,37,930,78,2014-08-03T01:20:00,0,20955558,197734
OK,78,37,930,78,2014-08-03T01:25:00,0,20956007,197734
OK,78,37,930,78,2014-08-03T01:30:00,0,20956456,197734
OK,78,37,930,78,2014-08-03T01:35:00,0,20956905,197734
OK,78,37,930,78,2014-08-03T01:40:00,0,20957354,197734
OK,78,37,930,78,2014-08-03T01:45:00,0,20957803,197734
OK,78,37,930,78,2014-08-03T01:50:00,0,20958252,197734
OK,78,37,930,78,2014-08-03T01:55:00,0,20958701,197734